Cocoa Beach, FL

7:40 PM EST on November 19, 2017 (GMT -0500)
Cape Canaveral Air Station Skid Strip

Weather History for KXMR - July, 2013

Change the Weather History Date:

Monday, July 22, 2013

  Actual Average (KCOF) Record (KCOF)
Temperature  
Mean Temperature 81 °F -  
Max Temperature 90 °F 85 °F 91 °F (2013)
Min Temperature 73 °F 74 °F 73 °F (1998)
Cooling Degree Days 16    
Growing Degree Days 31 (Base 50)    
Moisture  
Dew Point 74 °F    
Average Humidity 89    
Maximum Humidity 100    
Minimum Humidity 65    
Precipitation  
Precipitation 2.15 in - - ()
Sea Level Pressure  
Sea Level Pressure 30.11 in    
Wind  
Wind Speed 8 mph (WSW)    
Max Wind Speed 23 mph    
Max Gust Speed 31 mph    
Visibility 8 miles    
Events Fog , Rain , Thunderstorm    
Averages and records for this station are not official NWS values.
T = Trace of Precipitation, MM = Missing Value Source: NWS Daily Summary

Daily Weather History Graph

Daily Weather History Graph

Search for Another Location

Airport or City:

Trip Planner

Search our weather history database for the weather conditions in past years. The results will help you decide how hot, cold, wet, or windy it might be!

Date:

Astronomy

Jul. 22, 2013 Rise Set
Actual Time 6:38 AM EDT 8:18 PM EDT
Civil Twilight 6:12 AM EDT 8:44 PM EDT
Nautical Twilight 5:41 AM EDT 9:15 PM EDT
Astronomical Twilight 5:08 AM EDT 9:48 PM EDT
Moon 8:11 PM EDT (7/22) 6:28 AM EDT (7/22)
Length of Visible Light 14h 31m
Length of Day
13h 40m
Full, 100% of the Moon is Illuminated
Jul 22
Full
Jul 22
Full
Jul 29
Last Quarter
Aug 6
New
Aug 14
First Quarter

Hourly Weather History & Observations

Time (EDT) Temp. Heat Index Dew Point Humidity Pressure Visibility Wind Dir Wind Speed Gust Speed Precip Events Conditions
12:58 AM 73.8 °F - 72.7 °F 96% 30.12 in 10.0 mi WNW 1.2 mph - N/A   Clear
1:58 AM 74.7 °F - 72.7 °F 94% 30.11 in 10.0 mi West 4.6 mph - N/A   Clear
2:58 AM 74.7 °F - 72.7 °F 94% 30.09 in 10.0 mi WSW 6.9 mph - N/A   Clear
3:58 AM 75.4 °F - 73.2 °F 93% 30.08 in 10.0 mi SW 5.8 mph - N/A   Clear
4:58 AM 75.6 °F - 72.7 °F 91% 30.09 in 10.0 mi SSW 5.8 mph - N/A   Clear
5:58 AM 75.2 °F - 72.7 °F 92% 30.10 in 10.0 mi SSW 5.8 mph - N/A   Clear
7:58 AM 79.0 °F - 75.7 °F 90% 30.12 in 10.0 mi SSW 6.9 mph - N/A   Clear
8:58 AM 82.0 °F 89.9 °F 76.8 °F 84% 30.14 in 10.0 mi SW 10.4 mph - N/A   Clear
9:58 AM 83.8 °F 93.5 °F 77.0 °F 80% 30.14 in 10.0 mi SW 11.5 mph - N/A   Clear
10:58 AM 86.2 °F 97.4 °F 77.2 °F 74% 30.14 in 10.0 mi SW 12.7 mph - N/A   Clear
11:58 AM 87.6 °F 99.7 °F 77.2 °F 71% 30.13 in 10.0 mi SW 10.4 mph - N/A   Clear
12:58 PM 89.6 °F 101.6 °F 76.3 °F 65% 30.12 in 10.0 mi SW 10.4 mph - N/A   Clear
1:58 PM 88.5 °F 102.8 °F 78.3 °F 72% 30.11 in 10.0 mi SSE 11.5 mph - N/A   Partly Cloudy
2:58 PM 88.3 °F 101.7 °F 77.7 °F 71% 30.09 in 10.0 mi SSE 12.7 mph - N/A   Clear
3:58 PM 86.0 °F 96.4 °F 76.5 °F 73% 30.09 in 10.0 mi SSE 15.0 mph - N/A   Clear
4:09 PM 86.0 °F 96.9 °F 77.0 °F 74% 30.07 in 10.0 mi SSE 13.8 mph - N/A Thunderstorm Thunderstorm
4:23 PM 84.2 °F 94.1 °F 77.0 °F 79% 30.10 in 10.0 mi NNW 15.0 mph 18.4 mph N/A Rain , Thunderstorm Light Thunderstorms and Rain
4:33 PM 78.8 °F - 75.2 °F 89% 30.10 in 0.8 mi NW 18.4 mph 27.6 mph N/A Rain , Thunderstorm Heavy Thunderstorms and Rain
4:35 PM 77.0 °F - 73.4 °F 89% 30.12 in 0.5 mi WNW 17.3 mph 27.6 mph N/A Fog , Rain , Thunderstorm Heavy Thunderstorms and Rain
4:40 PM 75.2 °F - 73.4 °F 94% 30.14 in 0.2 mi WNW 18.4 mph 27.6 mph N/A Fog , Rain , Thunderstorm Heavy Thunderstorms and Rain
4:45 PM 75.2 °F - 73.4 °F 94% 30.14 in 0.2 mi WNW 23.0 mph 26.5 mph N/A Fog , Rain , Thunderstorm Heavy Thunderstorms and Rain
4:55 PM 73.4 °F - 73.4 °F 100% 30.13 in 0.2 mi NW 13.8 mph 31.1 mph N/A Fog , Rain , Thunderstorm Heavy Thunderstorms and Rain
4:58 PM 73.4 °F - 73.4 °F 100% 30.14 in 0.2 mi WNW 15.0 mph 31.1 mph 1.77 in Fog , Rain , Thunderstorm Heavy Thunderstorms and Rain
5:03 PM 73.4 °F - 71.6 °F 94% 30.11 in 0.8 mi WNW 5.8 mph - N/A Rain , Thunderstorm Heavy Thunderstorms and Rain
5:08 PM 73.4 °F - 71.6 °F 94% 30.11 in 1.0 mi NNW 10.4 mph - N/A Rain , Thunderstorm Heavy Thunderstorms and Rain
5:13 PM 73.4 °F - 71.6 °F 94% 30.11 in 1.2 mi NNW 11.5 mph - N/A Rain , Thunderstorm Heavy Thunderstorms and Rain
5:23 PM 73.4 °F - 71.6 °F 94% 30.10 in 3.0 mi NW 6.9 mph - N/A Rain , Thunderstorm Thunderstorms and Rain
5:28 PM 73.4 °F - 71.6 °F 94% 30.10 in 4.0 mi NNW 6.9 mph - N/A Rain , Thunderstorm Thunderstorms and Rain
5:41 PM 73.4 °F - 71.6 °F 94% 30.10 in 8.0 mi WNW 8.1 mph - N/A Rain , Thunderstorm Light Rain
5:58 PM 74.5 °F - 72.7 °F 94% 30.10 in 10.0 mi SW 3.5 mph - 0.35 in Thunderstorm Light Drizzle
6:03 PM 75.2 °F - 73.4 °F 94% 30.09 in 10.0 mi South 4.6 mph - N/A Thunderstorm Clear
6:44 PM 75.2 °F - 73.4 °F 94% 30.10 in 10.0 mi SE 3.5 mph - N/A   Light Drizzle
6:58 PM 74.3 °F - 73.0 °F 96% 30.11 in 10.0 mi ESE 2.3 mph - 0.01 in Rain Light Rain
7:58 PM 74.8 °F - 73.4 °F 95% 30.10 in 10.0 mi SSW 3.5 mph - 0.02 in   Light Drizzle
7:59 PM 75.2 °F - 73.4 °F 94% 30.09 in 10.0 mi SW 3.5 mph - N/A   Clear
8:10 PM 75.2 °F - 73.4 °F 94% 30.09 in 10.0 mi Calm Calm - N/A   Light Drizzle
8:29 PM 75.2 °F - 73.4 °F 94% 30.08 in 10.0 mi SSW 2.3 mph - N/A   Clear
8:58 PM 74.8 °F - 73.2 °F 95% 30.08 in 10.0 mi SSE 5.8 mph - 0.00 in   Clear
9:58 PM 73.9 °F - 73.0 °F 97% 30.10 in 10.0 mi South 4.6 mph - N/A   Clear
10:58 PM 73.4 °F - 72.7 °F 98% 30.11 in 10.0 mi South 1.2 mph - N/A   Clear
11:58 PM 74.1 °F - 73.4 °F 98% 30.11 in 10.0 mi SSW 3.5 mph - N/A   Clear